"Pseudo-MPEC" for ZTF01Z9

Created 2018 Oct 14 2:18:22 UT using Find_Orb

Click here for an explanation of pseudo-MPECs

 
 Astrometry: 
     ZTF01Z9  C2018 10 06.36061301 30 50.57 +33 40 58.8          17.04gUNEOCPI41
     ZTF01Z9  C2018 10 06.40657401 47 12.91 +35 00 42.4          16.79RUNEOCPI41
     ZTF01Z9  C2018 10 06.40692101 47 19.92 +35 01 14.0          16.79RUNEOCPI41
     ZTF01Z9  C2018 10 06.40750001 47 31.55 +35 02 05.7          16.80RUNEOCPI41
     ZTF01Z9  C2018 10 06.40784701 47 38.57 +35 02 36.7          16.80RUNEOCPI41

Station data:
(I41) Palomar Mountain--ZTF  (N33.357340 W116.859780)  US/California. 1.2-m
   f/2.44 Oschin Schmidt + CCD.

Orbital elements:  ZTF01Z9
   Perigee 2018 Oct 6.034879 +/- 0.00346 TT =  0:50:13 (JD 2458397.534879)
Epoch 2018 Oct  6.0 TT = JDT 2458397.5                        AutoNEOCP
q254011.055 +/- 89735               (J2000 equator)
H   28.8  G 0.15                    Peri.   14.20840 +/- 5.5
                                    Node   328.51816 +/- 0.58
e  56.6347852 +/- 73.4              Incl.   39.37543 +/- 0.0051
From 5 observations 2018 Oct. 6 (68.0 min); mean residual 0".14
Residuals in arcseconds: 
181006 I41  .00   .00     181006 I41  .13+  .22+    181006 I41  .17+  .05-    
181006 I41  .01-  .16-    181006 I41  .29-  .01-    

Ephemerides (geocentric):
Date (UTC) HH   RA              Dec         delta   r     elong  mag " sig PA
---- -- -- --  -------------   -----------  ------ ------ -----  --- ---- ---
2018 10 14 02  04 58 49.154   +38 06 23.12  .04353 1.0210 121.5 24.0 6667 110
2018 10 14 03  04 58 51.880   +38 06 12.84  .04376 1.0212 121.6 24.1 6670 110
2018 10 14 04  04 58 54.566   +38 06 02.62  .04398 1.0213 121.6 24.1 6673 110
2018 10 14 05  04 58 57.214   +38 05 52.46  .04421 1.0214 121.6 24.1 6677 110
2018 10 14 06  04 58 59.823   +38 05 42.36  .04443 1.0216 121.7 24.1 6680 110
2018 10 14 07  04 59 02.395   +38 05 32.31  .04466 1.0217 121.7 24.1 6683 110
2018 10 14 08  04 59 04.929   +38 05 22.32  .04488 1.0218 121.7 24.1 6686 110
2018 10 14 09  04 59 07.427   +38 05 12.38  .04511 1.0220 121.8 24.1 6689 110
2018 10 14 10  04 59 09.889   +38 05 02.49  .04533 1.0221 121.8 24.1 6692 110
2018 10 14 11  04 59 12.315   +38 04 52.66  .04556 1.0222 121.8 24.1 6695 110
2018 10 14 12  04 59 14.706   +38 04 42.87  .04578 1.0224 121.9 24.1 6698 110
2018 10 14 13  04 59 17.061   +38 04 33.14  .04600 1.0225 121.9 24.2 6701 110
2018 10 14 14  04 59 19.383   +38 04 23.46  .04623 1.0226 121.9 24.2 6704 110
2018 10 14 15  04 59 21.671   +38 04 13.82  .04645 1.0228 122.0 24.2 6707 110
2018 10 14 16  04 59 23.925   +38 04 04.23  .04668 1.0229 122.0 24.2 6709 110
2018 10 14 17  04 59 26.147   +38 03 54.69  .04690 1.0230 122.0 24.2 6712 110
2018 10 14 18  04 59 28.335   +38 03 45.20  .04713 1.0232 122.1 24.2 6715 110
2018 10 14 19  04 59 30.492   +38 03 35.75  .04735 1.0233 122.1 24.2 6718 110
2018 10 14 20  04 59 32.617   +38 03 26.35  .04758 1.0235 122.1 24.2 6721 110
2018 10 14 21  04 59 34.710   +38 03 16.99  .04780 1.0236 122.2 24.2 6723 110
2018 10 14 22  04 59 36.773   +38 03 07.67  .04803 1.0237 122.2 24.2 6726 110
2018 10 14 23  04 59 38.805   +38 02 58.40  .04825 1.0239 122.2 24.2 6729 110
2018 10 15 00  04 59 40.807   +38 02 49.17  .04847 1.0240 122.3 24.3 6732 110
2018 10 15 01  04 59 42.779   +38 02 39.97  .04870 1.0241 122.3 24.3 6734 110
2018 10 15 02  04 59 44.722   +38 02 30.82  .04892 1.0243 122.3 24.3 6737 110
2018 10 15 03  04 59 46.635   +38 02 21.71  .04915 1.0244 122.4 24.3 6740 110
2018 10 15 04  04 59 48.520   +38 02 12.64  .04937 1.0246 122.4 24.3 6742 110
2018 10 15 05  04 59 50.377   +38 02 03.60  .04960 1.0247 122.4 24.3 6745 110
2018 10 15 06  04 59 52.205   +38 01 54.61  .04982 1.0248 122.5 24.3 6747 110
2018 10 15 07  04 59 54.006   +38 01 45.65  .05005 1.0250 122.5 24.3 6750 110
2018 10 15 08  04 59 55.779   +38 01 36.72  .05027 1.0251 122.5 24.3 6752 110
2018 10 15 09  04 59 57.525   +38 01 27.84  .05050 1.0253 122.6 24.3 6755 110
2018 10 15 10  04 59 59.244   +38 01 18.98  .05072 1.0254 122.6 24.3 6757 110
2018 10 15 11  05 00 00.937   +38 01 10.16  .05094 1.0256 122.6 24.4 6760 110
2018 10 15 12  05 00 02.604   +38 01 01.38  .05117 1.0257 122.7 24.4 6762 110
2018 10 15 13  05 00 04.245   +38 00 52.63  .05139 1.0258 122.7 24.4 6765 110
2018 10 15 14  05 00 05.860   +38 00 43.91  .05162 1.0260 122.7 24.4 6767 110
2018 10 15 15  05 00 07.450   +38 00 35.22  .05184 1.0261 122.8 24.4 6770 110
2018 10 15 16  05 00 09.015   +38 00 26.57  .05207 1.0263 122.8 24.4 6772 110
2018 10 15 17  05 00 10.555   +38 00 17.95  .05229 1.0264 122.8 24.4 6774 110
2018 10 15 18  05 00 12.071   +38 00 09.35  .05252 1.0266 122.9 24.4 6777 110
2018 10 15 19  05 00 13.563   +38 00 00.79  .05274 1.0267 122.9 24.4 6779 110
2018 10 15 20  05 00 15.031   +37 59 52.26  .05297 1.0268 123.0 24.4 6781 110
2018 10 15 21  05 00 16.475   +37 59 43.75  .05319 1.0270 123.0 24.4 6784 110
2018 10 15 22  05 00 17.896   +37 59 35.28  .05342 1.0271 123.0 24.4 6786 110
2018 10 15 23  05 00 19.293   +37 59 26.83  .05364 1.0273 123.1 24.5 6788 110
2018 10 16 00  05 00 20.668   +37 59 18.41  .05386 1.0274 123.1 24.5 6790 110
2018 10 16 01  05 00 22.020   +37 59 10.01  .05409 1.0276 123.1 24.5 6793 110